EW9027 Weather Reports


Display with metric or nautical units.
time (UTC)temp
F
wind
direction
speed
MPH
gust
MPH
rain 1hr
in
rain 24hr
in
rain mn
in
humidity
%
barometer
mb
20181121203318 34 33 0.0 4.0 0.00 0.07 0.07 95 1021.3
20181121201644 34 88 1.0 7.0 0.00 0.07 0.07 95 1021.3
20181121200125 34 43 2.0 6.0 0.00 0.07 0.07 95 1021.2
20181121194629 34 312 1.0 4.0 0.00 0.07 0.07 95 1021.1
20181121193250 35 335 0.0 3.0 0.00 0.07 0.07 95 1021.0
20181121191623 34 100 0.0 3.0 0.00 0.07 0.07 95 1020.8
20181121190146 34 99 0.0 3.0 0.00 0.07 0.07 95 1020.8
20181121184618 34 33 1.0 3.0 0.00 0.07 0.07 95 1020.5
20181121183137 35 79 0.0 2.0 0.00 0.07 0.07 95 1020.5
20181121181636 35 37 1.0 5.0 0.00 0.07 0.07 95 1020.5
20181121180348 35 77 0.0 2.0 0.00 0.07 0.07 96 1020.5
20181121174557 34 77 0.0 5.0 0.00 0.07 0.07 96 1020.5
20181121173156 34 89 2.0 10.0 0.00 0.07 0.07 96 1020.4
20181121171609 34 302 0.0 6.0 0.00 0.07 0.07 96 1020.3
20181121170122 35 101 1.0 7.0 0.00 0.07 0.07 96 1020.3
20181121164614 35 86 0.0 3.0 0.00 0.07 0.07 96 1020.3
20181121163136 35 106 1.0 6.0 0.00 0.07 0.07 96 1020.2
20181121161601 35 68 1.0 4.0 0.00 0.07 0.07 96 1020.1
20181121160117 35 77 0.0 5.0 0.00 0.07 0.07 96 1020.0
20181121154559 35 349 0.0 7.0 0.00 0.07 0.07 96 1020.0
20181121153126 35 84 1.0 6.0 0.00 0.07 0.07 96 1019.8
20181121151639 35 94 2.0 5.0 0.00 0.07 0.07 96 1019.7
20181121150108 35 44 1.0 5.0 0.00 0.07 0.07 96 1019.6
20181121144548 35 76 0.0 5.0 0.00 0.07 0.07 96 1019.5
20181121143100 35 113 2.0 8.0 0.00 0.07 0.07 96 1019.5
20181121141553 35 29 2.0 6.0 0.00 0.07 0.07 96 1019.4
20181121140046 35 36 0.0 6.0 0.00 0.07 0.07 96 1019.3
20181121134559 35 49 0.0 5.0 0.00 0.07 0.07 96 1019.2
20181121133059 35 117 0.0 2.0 0.00 0.07 0.07 96 1019.2
20181121131542 35 103 2.0 6.0 0.00 0.07 0.07 96 1019.0
20181121130042 35 15 0.0 4.0 0.00 0.07 0.07 96 1018.9
20181121124556 35 52 1.0 5.0 0.00 0.07 0.07 96 1018.8
20181121123117 35 40 0.0 4.0 0.00 0.07 0.07 96 1018.7
20181121121613 35 103 0.0 4.0 0.00 0.07 0.07 96 1018.8
20181121120035 35 295 1.0 5.0 0.00 0.07 0.07 96 1018.8
20181121114522 35 350 1.0 7.0 0.00 0.07 0.07 96 1018.7
20181121113033 35 63 0.0 5.0 0.00 0.07 0.07 96 1018.8
20181121111524 35 61 1.0 5.0 0.00 0.07 0.07 96 1018.8
20181121110054 35 70 1.0 4.0 0.00 0.07 0.07 96 1018.8
20181121104524 35 36 1.0 6.0 0.01 0.07 0.07 95 1018.7
20181121103018 35 56 2.0 5.0 0.01 0.07 0.07 95 1018.7
20181121101545 35 8 1.0 4.0 0.01 0.07 0.07 95 1018.8
20181121100018 35 75 0.0 4.0 0.01 0.07 0.07 95 1018.9
20181121094515 35 65 0.0 3.0 0.00 0.06 0.06 95 1019.0
20181121093014 35 7 0.0 3.0 0.00 0.06 0.06 95 1018.9
20181121091538 35 69 0.0 4.0 0.00 0.06 0.06 95 1018.7
20181121090009 35 83 0.0 3.0 0.00 0.06 0.06 96 1018.8
20181121083135 34 77 1.0 4.0 0.00 0.06 0.06 96 1018.6
20181121081705 34 55 0.0 4.0 0.01 0.06 0.06 96 1018.6
20181121080123 34 20 0.0 5.0 0.01 0.06 0.06 95 1018.5
20181121074731 34 41 1.0 4.0 0.01 0.06 0.06 95 1018.6
20181121073142 34 35 0.0 3.0 0.01 0.06 0.06 95 1018.6
20181121071715 34 45 0.0 3.0 0.00 0.06 0.06 95 1018.2
20181121070101 34 96 0.0 4.0 0.00 0.06 0.06 95 1018.3
20181121064613 34 63 0.0 2.0 0.00 0.06 0.06 95 1017.9
20181121063141 34 57 0.0 2.0 0.01 0.06 0.06 95 1017.8
20181121061611 34 32 0.0 2.0 0.01 0.06 0.06 95 1017.6
20181121060136 34 44 0.0 2.0 0.01 0.06 0.06 95 1017.3
20181121054559 34 32 1.0 3.0 0.01 0.06 0.06 95 1017.3
20181121053041 34 73 1.0 6.0 0.00 0.05 0.05 95 1017.3
20181121051600 33 111 1.0 3.0 0.01 0.05 0.05 96 1017.1
20181121050051 33 80 0.0 2.0 0.01 0.05 0.05 96 1017.2
20181121044605 33 53 0.0 3.0 0.01 0.05 0.05 96 1017.0
20181121043058 33 141 0.0 3.0 0.01 0.05 0.05 96 1017.0
20181121041614 33 69 0.0 3.0 0.00 0.04 0.04 95 1016.9
20181121040048 33 52 1.0 4.0 0.01 0.04 0.04 95 1016.9
20181121034527 33 109 0.0 4.0 0.01 0.04 0.04 95 1016.8
20181121033042 33 77 0.0 4.0 0.01 0.04 0.04 95 1016.6
20181121031532 33 53 0.0 2.0 0.01 0.04 0.04 95 1016.4
20181121030048 33 328 0.0 3.0 0.00 0.03 0.03 95 1016.3
20181121024518 33 59 0.0 3.0 0.01 0.03 0.03 95 1016.2
20181121023016 33 77 1.0 3.0 0.01 0.03 0.03 95 1016.2
20181121021611 33 38 1.0 3.0 0.01 0.03 0.03 95 1016.3
20181121020033 33 35 1.0 2.0 0.01 0.03 0.03 95 1016.3
20181121014529 33 70 0.0 2.0 0.01 0.02 0.02 95 1016.4
20181121013018 33 57 0.0 2.0 0.01 0.02 0.02 95 1016.4
20181121011525 33 96 0.0 4.0 0.01 0.02 0.02 95 1016.6
20181121010012 33 102 0.0 2.0 0.02 0.02 0.02 95 1016.6
20181121004527 33 77 1.0 3.0 0.01 0.02 0.02 95 1016.5
20181121003003 33 75 0.0 1.0 0.01 0.02 0.02 95 1016.5
20181121001505 33 58 0.0 2.0 0.01 0.02 0.02 95 1016.5
20181121000003 33 103 0.0 1.0 0.01 0.01 0.01 95 1016.5
20181120234639 33 79 0.0 0.0 0.01 0.01 0.01 95 1016.4
20181120233157 33 79 0.0 1.0 0.01 0.01 0.01 95 1016.4
20181120231832 33 113 0.0 1.0 0.01 0.01 0.01 95 1016.3
20181120230145 33 59 0.0 2.0 0.00 0.00 0.00 95 1016.3
20181120224624 33 109 0.0 1.0 0.00 0.00 0.00 95 1016.3
20181120223204 33 110 0.0 1.0 0.00 0.00 0.00 95 1016.2
20181120221617 33 110 0.0 1.0 0.00 0.00 0.00 94 1016.0
20181120220144 33 105 0.0 2.0 0.00 0.00 0.00 94 1016.0
20181120214644 33 77 0.0 2.0 0.00 0.00 0.00 94 1016.0
20181120213200 33 119 0.0 3.0 0.00 0.00 0.00 93 1015.8
20181120211609 33 72 1.0 4.0 0.00 0.00 0.00 93 1015.8
20181120210245 33 101 0.0 2.0 0.00 0.00 0.00 93 1015.6
20181120204718 33 159 1.0 4.0 0.00 0.00 0.00 93 1015.5